Location: Cicognara
(44.9500°N, 10.4667°E)
Time: 23:37:55
(UTC+00:00)

Cosmos 1980 - Pass Details

Date: 20 June 2021
Orbit: 838 x 848 km, 71.0° (Epoch: 23 July)

Event Time Altitude Azimuth Distance (km) Brightness Sun altitude
Exits shadow 21:50:54 27° 192° (SSW) 1,567 4.6 -18.7°
Maximum altitude 21:54:04 74° 113° (ESE) 884 3.6 -18.9°
Drops below altitude 10° 21:59:45 10° 29° (NNE) 2,481 6.7 -19.2°
Sets 22:02:12 0° 28° (NNE) 3,420 7.5 -19.4°
